Location: Unspecified
(51.5147°N, 7.4673°E)
Time: 16:09:12
(UTC+01:00)

Transit 4A - Pass Details

Date: 26 February 2026
Orbit: 864 x 977 km, 66.8° (Epoch: 10 March)

Event Time Altitude Azimuth Distance (km) Brightness Sun altitude
Exits shadow 06:12:08 - 303° (WNW) 2,666 9.8 -11.6°
Reaches altitude 10° 06:12:22 10° 305° (NW) 2,610 9.8 -11.6°
Maximum altitude 06:16:45 20° 351° (N) 2,008 9.6 -10.9°
Drops below altitude 10° 06:21:13 10° 38° (NE) 2,670 10.8 -10.2°
Sets 06:24:34 0° 54° (NE) 3,636 11.9 -9.7°
